Location: Lalanga
(4.5882°N, 32.9072°E)
Time: 06:10:25
(UTC+00:00)

Cosmos 1452 Rocket - Pass Details

Date: 24 January 2020
Orbit: 768 x 774 km, 74.1° (Epoch: 19 February)

Event Time Altitude Azimuth Distance (km) Brightness Sun altitude
Rises 17:53:40 0° 200° (SSW) 3,244 7.3 -28.2°
Reaches altitude 10° 17:56:05 10° 203° (SSW) 2,316 6.5 -28.8°
Enters shadow 18:01:15 60° 282° (WNW) 883 3.9 -30.0°
